74.5660;-176.1360;1; 401.218; 222.856;1965.05.09 12:00:00; -16.5;1024.8;   1.0; 180.0;    .000;    .000;   0.000; 90;
74.5667;-176.1315;2; 401.209; 222.844;1965.05.09 18:00:00; -17.0;1025.0;   1.0; 230.0;    .157;    .250;   0.026; 58;
74.5675;-176.1270;2; 401.199; 222.831;1965.05.10 00:00:00; -16.5;1027.5;   0.0;   0.0;    .314;    .500;   0.026; 58;
74.5683;-176.1225;2; 401.190; 222.819;1965.05.10 06:00:00; -16.6;1028.2;   1.0; 270.0;    .471;    .750;   0.026; 58;
74.5690;-176.1180;2; 401.181; 222.806;1965.05.10 12:00:00; -17.6;1029.5;   0.0;   0.0;    .628;   1.000;   0.026; 58;
74.5697;-176.1135;2; 401.172; 222.794;1965.05.10 18:00:00; -17.2;1031.1;   0.0;   0.0;    .785;   1.250;   0.026; 58;
74.5705;-176.1090;2; 401.163; 222.781;1965.05.11 00:00:00; -15.6;1032.4;   0.0;   0.0;    .943;   1.500;   0.026; 58;
74.5713;-176.1045;2; 401.154; 222.769;1965.05.11 06:00:00; -15.3;1032.3;   0.0;   0.0;   1.099;   1.750;   0.026; 58;
74.5720;-176.1000;2; 401.145; 222.756;1965.05.11 12:00:00; -19.4;1031.9;   0.0;   0.0;   1.257;   2.000;   0.026; 58;
74.5725;-176.1004;2; 401.139; 222.757;1965.05.11 18:00:00; -21.2;1031.9;   0.0;   0.0;   1.314;   2.250;   0.010;349;
74.5730;-176.1007;2; 401.134; 222.759;1965.05.12 00:00:00; -16.2;1032.1;   2.0; 160.0;   1.370;   2.500;   0.009;349;
74.5735;-176.1011;2; 401.128; 222.760;1965.05.12 06:00:00; -16.2;1029.6;   3.0; 140.0;   1.427;   2.750;   0.010;349;
74.5740;-176.1015;2; 401.123; 222.762;1965.05.12 12:00:00; -17.3;1028.7;   3.0; 180.0;   1.483;   3.000;   0.009;349;
74.5745;-176.1019;2; 401.118; 222.763;1965.05.12 18:00:00; -17.4;1027.0;   4.0; 160.0;   1.540;   3.250;   0.010;349;
74.5750;-176.1022;2; 401.112; 222.765;1965.05.13 00:00:00; -14.9;1025.3;   4.0; 160.0;   1.596;   3.500;   0.009;349;
74.5755;-176.1026;2; 401.107; 222.766;1965.05.13 06:00:00; -14.6;1024.1;   3.0; 160.0;   1.654;   3.750;   0.010;349;
74.5760;-176.1030;2; 401.102; 222.768;1965.05.13 12:00:00; -14.8;1024.2;   2.0; 180.0;   1.710;   4.000;   0.009;348;
74.5843;-176.1149;2; 401.013; 222.809;1965.05.13 18:00:00; -13.5;1024.7;   0.0;   0.0;   2.693;   4.250;   0.164;339;
74.5925;-176.1269;2; 400.925; 222.850;1965.05.14 00:00:00; -10.0;1026.0;   0.0;   0.0;   3.676;   4.500;   0.164;339;
74.6008;-176.1389;2; 400.837; 222.891;1965.05.14 06:00:00; -12.4;1026.7;   0.0;   0.0;   4.661;   4.750;   0.164;339;
74.6090;-176.1509;2; 400.749; 222.932;1965.05.14 12:00:00; -15.3;1027.9;   2.0;  20.0;   5.644;   5.000;   0.164;339;
74.6173;-176.1629;2; 400.661; 222.973;1965.05.14 18:00:00; -15.1;1027.8;   1.0;  70.0;   6.628;   5.250;   0.164;339;
74.6255;-176.1749;2; 400.573; 223.014;1965.05.15 00:00:00; -14.9;1026.9;   4.0;  70.0;   7.610;   5.500;   0.164;339;
74.6338;-176.1870;2; 400.485; 223.055;1965.05.15 06:00:00; -14.6;1025.4;   5.0;  70.0;   8.593;   5.750;   0.164;339;
74.6420;-176.1990;2; 400.397; 223.096;1965.05.15 12:00:00; -15.0;1024.7;   5.0;  70.0;   9.577;   6.000;   0.164;339;
74.6461;-176.2117;2; 400.354; 223.135;1965.05.15 18:00:00; -14.8;1023.6;   6.0;  70.0;  10.170;   6.250;   0.099;321;
74.6503;-176.2245;2; 400.312; 223.175;1965.05.16 00:00:00; -13.5;1021.5;   6.0;  70.0;  10.762;   6.500;   0.099;321;
74.6544;-176.2372;2; 400.269; 223.215;1965.05.16 06:00:00; -13.5;1021.2;   6.0;  70.0;  11.354;   6.750;   0.099;321;
74.6585;-176.2499;2; 400.226; 223.255;1965.05.16 12:00:00; -17.5;1019.0;   6.0;  70.0;  11.947;   7.000;   0.099;321;
74.6626;-176.2627;2; 400.183; 223.295;1965.05.16 18:00:00; -17.7;1018.4;   5.0;  70.0;  12.539;   7.250;   0.099;321;
74.6667;-176.2755;2; 400.141; 223.335;1965.05.17 00:00:00; -14.2;1016.7;   7.0;  70.0;  13.131;   7.500;   0.099;321;
74.6709;-176.2882;2; 400.098; 223.375;1965.05.17 06:00:00; -13.9;1016.2;   7.0;  70.0;  13.725;   7.750;   0.099;321;
74.6750;-176.3010;2; 400.055; 223.415;1965.05.17 12:00:00; -17.7;1016.9;   4.0;  50.0;  14.317;   8.000;   0.099;321;
74.6738;-176.3042;2; 400.069; 223.423;1965.05.17 18:00:00; -18.3;1017.0;   3.0;  50.0;  14.486;   8.250;   0.028;214;
74.6725;-176.3075;2; 400.084; 223.432;1965.05.18 00:00:00; -15.5;1016.6;   5.0;  20.0;  14.655;   8.500;   0.028;214;
74.6712;-176.3107;2; 400.098; 223.440;1965.05.18 06:00:00; -15.0;1017.0;   4.0;  20.0;  14.824;   8.750;   0.028;214;
74.6700;-176.3140;2; 400.112; 223.449;1965.05.18 12:00:00; -20.0;1017.9;   4.0;  20.0;  14.992;   9.000;   0.028;214;
74.6687;-176.3172;2; 400.126; 223.458;1965.05.18 18:00:00; -20.8;1018.5;   4.0; 360.0;  15.161;   9.250;   0.028;214;
74.6675;-176.3205;2; 400.141; 223.466;1965.05.19 00:00:00; -16.5;1019.1;   5.0; 360.0;  15.329;   9.500;   0.028;215;
74.6663;-176.3237;2; 400.155; 223.475;1965.05.19 06:00:00; -16.2;1019.4;   2.0; 340.0;  15.498;   9.750;   0.028;214;
74.6650;-176.3270;2; 400.169; 223.483;1965.05.19 12:00:00; -19.7;1020.9;   3.0; 340.0;  15.667;  10.000;   0.028;214;
74.6564;-176.3709;2; 400.272; 223.604;1965.05.19 18:00:00; -19.2;1021.5;   2.0; 360.0;  17.274;  10.250;   0.268;234;
74.6478;-176.4148;2; 400.374; 223.726;1965.05.20 00:00:00; -12.0;1021.6;   0.0;   0.0;  18.881;  10.500;   0.268;233;
74.6392;-176.4586;2; 400.476; 223.847;1965.05.20 06:00:00; -11.2;1021.3;   1.0;  90.0;  20.488;  10.750;   0.268;233;
74.6306;-176.5024;2; 400.579; 223.968;1965.05.20 12:00:00; -18.5;1019.3;   2.0; 110.0;  22.095;  11.000;   0.268;233;
74.6219;-176.5461;2; 400.681; 224.090;1965.05.20 18:00:00; -16.6;1017.5;   3.0;  90.0;  23.702;  11.250;   0.268;233;
74.6133;-176.5898;2; 400.783; 224.211;1965.05.21 00:00:00; -10.8;1015.6;   5.0;  90.0;  25.309;  11.500;   0.268;233;
74.6047;-176.6334;2; 400.885; 224.332;1965.05.21 06:00:00; -10.1;1012.3;   6.0;  90.0;  26.915;  11.750;   0.268;233;
74.5960;-176.6770;2; 400.988; 224.454;1965.05.21 12:00:00;  -9.8;1010.2;   4.0;  90.0;  28.522;  12.000;   0.268;233;
74.6018;-176.7124;2; 400.930; 224.560;1965.05.21 18:00:00;  -9.5;1007.9;   4.0;  90.0;  29.749;  12.250;   0.204;302;
74.6075;-176.7478;2; 400.873; 224.667;1965.05.22 00:00:00;  -6.5;1005.6;   3.0; 140.0;  30.976;  12.500;   0.204;302;
74.6133;-176.7833;2; 400.816; 224.774;1965.05.22 06:00:00;  -6.9;1004.1;   2.0; 270.0;  32.202;  12.750;   0.204;301;
74.6190;-176.8188;2; 400.758; 224.881;1965.05.22 12:00:00; -10.4;1003.8;   2.0; 270.0;  33.430;  13.000;   0.205;301;
74.6248;-176.8543;2; 400.701; 224.987;1965.05.22 18:00:00;  -9.3;1003.3;   3.0; 270.0;  34.656;  13.250;   0.204;301;
74.6305;-176.8898;2; 400.644; 225.094;1965.05.23 00:00:00;  -8.9;1003.5;   4.0; 290.0;  35.884;  13.500;   0.205;301;
74.6363;-176.9254;2; 400.587; 225.201;1965.05.23 06:00:00; -10.5;1005.4;   6.0; 290.0;  37.110;  13.750;   0.204;301;
74.6420;-176.9610;2; 400.529; 225.307;1965.05.23 12:00:00; -10.2;1007.2;   4.0; 270.0;  38.336;  14.000;   0.204;301;
74.6499;-176.9752;2; 400.445; 225.353;1965.05.23 18:00:00; -11.2;1008.5;   3.0; 290.0;  39.307;  14.250;   0.162;334;
74.6578;-176.9894;2; 400.361; 225.399;1965.05.24 00:00:00; -12.7;1011.6;   3.0; 320.0;  40.278;  14.500;   0.162;334;
74.6656;-177.0036;2; 400.277; 225.445;1965.05.24 06:00:00; -11.8;1013.3;   2.0; 340.0;  41.248;  14.750;   0.162;334;
74.6735;-177.0179;2; 400.193; 225.491;1965.05.24 12:00:00; -10.5;1014.9;   0.0;   0.0;  42.219;  15.000;   0.162;334;
74.6814;-177.0321;2; 400.108; 225.537;1965.05.24 18:00:00; -14.8;1016.5;   1.0; 270.0;  43.190;  15.250;   0.162;334;
74.6893;-177.0464;2; 400.024; 225.582;1965.05.25 00:00:00;  -9.8;1018.3;   2.0; 270.0;  44.161;  15.500;   0.162;334;
74.6971;-177.0607;2; 399.940; 225.628;1965.05.25 06:00:00;  -9.6;1018.8;   2.0; 200.0;  45.131;  15.750;   0.162;334;
74.7050;-177.0750;2; 399.856; 225.674;1965.05.25 12:00:00;  -9.7;1018.4;   5.0; 250.0;  46.102;  16.000;   0.162;334;
74.7044;-177.0609;2; 399.861; 225.633;1965.05.25 18:00:00;  -9.4;1018.4;   5.0; 230.0;  46.522;  16.250;   0.070;100;
74.7038;-177.0467;2; 399.865; 225.591;1965.05.26 00:00:00;  -6.9;1017.7;   5.0; 230.0;  46.943;  16.500;   0.070; 99;
74.7031;-177.0326;2; 399.870; 225.550;1965.05.26 06:00:00;  -5.8;1016.3;   8.0; 250.0;  47.363;  16.750;   0.070;100;
74.7025;-177.0185;2; 399.875; 225.509;1965.05.26 12:00:00;  -4.9;1016.3;   5.0; 250.0;  47.783;  17.000;   0.070;100;
74.7019;-177.0044;2; 399.879; 225.468;1965.05.26 18:00:00;  -4.3;1016.6;   5.0; 250.0;  48.203;  17.250;   0.070;100;
74.7013;-176.9902;2; 399.884; 225.427;1965.05.27 00:00:00;  -3.8;1018.0;   3.0; 270.0;  48.623;  17.500;   0.070; 99;
74.7006;-176.9761;2; 399.889; 225.385;1965.05.27 06:00:00;  -4.1;1019.8;   0.0;   0.0;  49.043;  17.750;   0.070;100;
74.7000;-176.9620;2; 399.894; 225.344;1965.05.27 12:00:00;  -4.4;1021.3;   2.0; 110.0;  49.464;  18.000;   0.070;100;
74.6963;-176.9539;2; 399.933; 225.318;1965.05.27 18:00:00;  -4.5;1023.2;   1.0; 140.0;  49.944;  18.250;   0.080;150;
74.6925;-176.9457;2; 399.973; 225.293;1965.05.28 00:00:00;  -4.3;1023.6;   3.0; 140.0;  50.425;  18.500;   0.080;150;
74.6888;-176.9376;2; 400.013; 225.267;1965.05.28 06:00:00;  -4.3;1023.0;   2.0;  90.0;  50.905;  18.750;   0.080;150;
74.6850;-176.9295;2; 400.053; 225.241;1965.05.28 12:00:00;  -5.1;1023.3;   3.0; 140.0;  51.386;  19.000;   0.080;150;
74.6813;-176.9213;2; 400.093; 225.216;1965.05.28 18:00:00;  -5.9;1024.6;   5.0; 110.0;  51.866;  19.250;   0.080;150;
74.6775;-176.9132;2; 400.133; 225.190;1965.05.29 00:00:00;  -5.7;1025.6;   5.0;  90.0;  52.346;  19.500;   0.080;150;
74.6738;-176.9051;2; 400.173; 225.164;1965.05.29 06:00:00;  -6.4;1026.4;   3.0; 110.0;  52.826;  19.750;   0.080;150;
74.6700;-176.8970;2; 400.212; 225.138;1965.05.29 12:00:00;  -8.0;1027.5;   3.0;  90.0;  53.307;  20.000;   0.080;150;
74.6708;-176.8940;2; 400.204; 225.130;1965.05.29 18:00:00;  -8.0;1028.2;   4.0; 140.0;  53.429;  20.250;   0.020; 46;
74.6715;-176.8910;2; 400.195; 225.122;1965.05.30 00:00:00;  -7.2;1030.0;   5.0;  90.0;  53.550;  20.500;   0.020; 47;
74.6722;-176.8880;2; 400.186; 225.114;1965.05.30 06:00:00;  -6.6;1030.7;   5.0; 110.0;  53.671;  20.750;   0.020; 47;
74.6730;-176.8850;2; 400.178; 225.105;1965.05.30 12:00:00;  -8.2;1031.8;   3.0; 110.0;  53.792;  21.000;   0.020; 47;
74.6738;-176.8820;2; 400.169; 225.097;1965.05.30 18:00:00;  -9.4;1032.0;   2.0; 140.0;  53.914;  21.250;   0.020; 46;
74.6745;-176.8790;2; 400.160; 225.089;1965.05.31 00:00:00;  -6.4;1032.1;   0.0;   0.0;  54.035;  21.500;   0.020; 47;
74.6752;-176.8760;2; 400.152; 225.081;1965.05.31 06:00:00;  -7.3;1029.7;   2.0;  50.0;  54.156;  21.750;   0.020; 47;
74.6760;-176.8730;2; 400.143; 225.072;1965.05.31 12:00:00;  -8.1;1029.0;   6.0;  70.0;  54.278;  22.000;   0.020; 47;
74.6892;-176.9162;2; 400.005; 225.205;1965.05.31 18:00:00;  -8.1;1027.7;   4.0;  90.0;  56.216;  22.250;   0.323;319;
74.7023;-176.9595;2; 399.868; 225.338;1965.06.01 00:00:00;  -6.0;1027.0;   4.0; 110.0;  58.153;  22.500;   0.323;319;
74.7154;-177.0029;2; 399.731; 225.472;1965.06.01 06:00:00;  -4.8;1025.8;   3.0; 110.0;  60.090;  22.750;   0.323;319;
74.7286;-177.0464;2; 399.593; 225.605;1965.06.01 12:00:00;  -9.3;1025.2;   1.0; 110.0;  62.028;  23.000;   0.323;319;
74.7417;-177.0899;2; 399.456; 225.738;1965.06.01 18:00:00;  -8.2;1024.1;   0.0;   0.0;  63.965;  23.250;   0.323;319;
74.7548;-177.1335;2; 399.318; 225.871;1965.06.02 00:00:00;  -5.2;1023.4;   2.0; 110.0;  65.902;  23.500;   0.323;319;
74.7679;-177.1772;2; 399.181; 226.004;1965.06.02 06:00:00;  -3.4;1022.9;   1.0; 110.0;  67.839;  23.750;   0.323;319;
74.7810;-177.2210;2; 399.044; 226.137;1965.06.02 12:00:00;  -8.6;1021.7;   1.0; 140.0;  69.776;  24.000;   0.323;319;
74.7926;-177.2983;2; 398.927; 226.365;1965.06.02 18:00:00;  -7.5;1020.5;   1.0;  90.0;  72.376;  24.250;   0.433;300;
74.8042;-177.3758;2; 398.810; 226.594;1965.06.03 00:00:00;  -2.7;1019.8;   0.0;   0.0;  74.975;  24.500;   0.433;300;
74.8157;-177.4534;2; 398.694; 226.822;1965.06.03 06:00:00;  -1.4;1019.4;   0.0;   0.0;  77.574;  24.750;   0.433;300;
74.8272;-177.5311;2; 398.578; 227.051;1965.06.03 12:00:00;  -8.9;1018.1;   2.0; 180.0;  80.173;  25.000;   0.433;299;
74.8387;-177.6089;2; 398.461; 227.280;1965.06.03 18:00:00;  -6.7;1017.5;   2.0; 230.0;  82.772;  25.250;   0.433;299;
74.8502;-177.6868;2; 398.345; 227.508;1965.06.04 00:00:00;  -2.3;1017.1;   2.0; 200.0;  85.371;  25.500;   0.433;299;
74.8616;-177.7648;2; 398.228; 227.737;1965.06.04 06:00:00;  -2.1;1017.6;   1.0; 180.0;  87.971;  25.750;   0.433;299;
74.8730;-177.8430;2; 398.112; 227.965;1965.06.04 12:00:00;  -8.8;1017.5;   1.0; 180.0;  90.569;  26.000;   0.433;299;
74.8715;-177.8620;2; 398.130; 228.019;1965.06.04 18:00:00;  -7.7;1016.7;   0.0;   0.0;  91.146;  26.250;   0.096;253;
74.8700;-177.8810;2; 398.149; 228.073;1965.06.05 00:00:00;  -3.1;1018.1;   2.0; 200.0;  91.722;  26.500;   0.096;253;
74.8685;-177.9000;2; 398.167; 228.127;1965.06.05 06:00:00;  -1.4;1019.5;   0.0;   0.0;  92.298;  26.750;   0.096;253;
74.8670;-177.9190;2; 398.185; 228.180;1965.06.05 12:00:00;  -8.7;1020.7;   1.0; 160.0;  92.874;  27.000;   0.096;253;
74.8655;-177.9380;2; 398.204; 228.234;1965.06.05 18:00:00;  -6.2;1022.1;   0.0;   0.0;  93.451;  27.250;   0.096;253;
74.8640;-177.9570;2; 398.222; 228.288;1965.06.06 00:00:00;  -4.4;1023.1;   2.0; 140.0;  94.027;  27.500;   0.096;253;
74.8625;-177.9760;2; 398.241; 228.342;1965.06.06 06:00:00;  -4.6;1023.8;   3.0; 160.0;  94.603;  27.750;   0.096;253;
74.8610;-177.9950;2; 398.259; 228.396;1965.06.06 12:00:00;  -6.9;1023.2;   3.0; 140.0;  95.179;  28.000;   0.096;253;
74.8678;-178.0343;2; 398.189; 228.511;1965.06.06 18:00:00;  -7.1;1022.0;   3.0; 140.0;  96.545;  28.250;   0.228;303;
74.8745;-178.0735;2; 398.118; 228.626;1965.06.07 00:00:00;  -6.2;1022.1;   3.0; 110.0;  97.911;  28.500;   0.228;303;
74.8813;-178.1129;2; 398.048; 228.741;1965.06.07 06:00:00;  -6.0;1020.4;   4.0;  90.0;  99.277;  28.750;   0.228;303;
74.8881;-178.1522;2; 397.977; 228.856;1965.06.07 12:00:00;  -8.0;1020.7;   5.0;  90.0; 100.644;  29.000;   0.228;303;
74.8948;-178.1916;2; 397.907; 228.971;1965.06.07 18:00:00;  -8.8;1020.4;   6.0;  90.0; 102.009;  29.250;   0.228;303;
74.9015;-178.2310;2; 397.837; 229.086;1965.06.08 00:00:00;  -5.5;1020.1;   8.0;  70.0; 103.376;  29.500;   0.228;303;
74.9083;-178.2705;2; 397.766; 229.201;1965.06.08 06:00:00;  -4.3;1020.0;   8.0;  70.0; 104.742;  29.750;   0.228;303;
74.9150;-178.3100;2; 397.696; 229.316;1965.06.08 12:00:00;  -6.1;1021.5;   8.0;  90.0; 106.108;  30.000;   0.228;303;
74.9336;-178.3972;2; 397.499; 229.570;1965.06.08 18:00:00;  -7.3;1021.1;   9.0;  70.0; 109.372;  30.250;   0.544;309;
74.9522;-178.4847;2; 397.302; 229.825;1965.06.09 00:00:00;  -4.8;1019.9;  10.0;  70.0; 112.636;  30.500;   0.544;309;
74.9708;-178.5724;2; 397.104; 230.080;1965.06.09 06:00:00;  -4.5;1020.9;  12.0;  90.0; 115.901;  30.750;   0.544;309;
74.9893;-178.6603;2; 396.907; 230.335;1965.06.09 12:00:00;  -5.0;1021.5;   9.0;  90.0; 119.165;  31.000;   0.544;309;
75.0078;-178.7484;2; 396.710; 230.589;1965.06.09 18:00:00;  -7.3;1022.1;   8.0;  90.0; 122.429;  31.250;   0.544;309;
75.0262;-178.8367;2; 396.513; 230.844;1965.06.10 00:00:00;  -5.3;1023.2;  10.0;  90.0; 125.692;  31.500;   0.544;309;
75.0446;-178.9252;2; 396.316; 231.099;1965.06.10 06:00:00;  -3.4;1023.0;  10.0;  90.0; 128.956;  31.750;   0.544;309;
75.0630;-179.0140;2; 396.119; 231.353;1965.06.10 12:00:00;  -2.0;1022.1;   7.0;  90.0; 132.221;  32.000;   0.544;309;
75.0779;-179.1158;2; 395.960; 231.644;1965.06.10 18:00:00;  -1.9;1021.9;   6.0;  90.0; 135.576;  32.250;   0.559;300;
75.0928;-179.2178;2; 395.801; 231.934;1965.06.11 00:00:00;  -2.7;1021.6;   6.0; 110.0; 138.931;  32.500;   0.559;300;
75.1076;-179.3200;2; 395.642; 232.224;1965.06.11 06:00:00;  -1.6;1020.1;   6.0;  70.0; 142.286;  32.750;   0.559;299;
75.1224;-179.4224;2; 395.484; 232.514;1965.06.11 12:00:00;  -3.0;1018.8;   6.0;  90.0; 145.640;  33.000;   0.559;299;
75.1371;-179.5250;2; 395.325; 232.805;1965.06.11 18:00:00;  -4.6;1016.9;   7.0;  90.0; 148.994;  33.250;   0.559;299;
75.1518;-179.6278;2; 395.166; 233.095;1965.06.12 00:00:00;  -2.6;1014.4;   7.0;  90.0; 152.349;  33.500;   0.559;299;
75.1664;-179.7308;2; 395.007; 233.385;1965.06.12 06:00:00;  -1.7;1011.9;   5.0; 110.0; 155.704;  33.750;   0.559;299;
75.1810;-179.8340;2; 394.848; 233.675;1965.06.12 12:00:00;  -0.7;1012.2;   5.0; 110.0; 159.058;  34.000;   0.559;299;
75.2071;-179.9282;2; 394.562; 233.940;1965.06.12 18:00:00;  -0.5;1012.0;   7.0; 140.0; 163.010;  34.250;   0.659;317;
75.2332; 179.9773;2; 394.276; 234.205;1965.06.13 00:00:00;   0.1;1012.0;   7.0; 110.0; 166.961;  34.500;   0.659; 90;
75.2593; 179.8824;2; 393.990; 234.469;1965.06.13 06:00:00;   0.2;1010.6;   8.0; 110.0; 170.913;  34.750;   0.659;317;
75.2853; 179.7872;2; 393.704; 234.734;1965.06.13 12:00:00;  -0.8;1011.1;  10.0;  90.0; 174.865;  35.000;   0.659;317;
75.3113; 179.6917;2; 393.418; 234.998;1965.06.13 18:00:00;  -1.1;1010.9;   9.0; 140.0; 178.816;  35.250;   0.659;317;
75.3372; 179.5958;2; 393.132; 235.263;1965.06.14 00:00:00;  -0.9;1012.2;   6.0; 140.0; 182.768;  35.500;   0.659;317;
75.3631; 179.4996;2; 392.846; 235.527;1965.06.14 06:00:00;  -1.3;1013.5;   6.0; 110.0; 186.719;  35.750;   0.658;317;
75.3890; 179.4030;2; 392.560; 235.792;1965.06.14 12:00:00;  -1.3;1015.1;   5.0; 140.0; 190.671;  36.000;   0.659;317;
75.4160; 179.3037;2; 392.260; 236.063;1965.06.14 18:00:00;  -0.8;1016.1;   3.0; 110.0; 194.767;  36.250;   0.683;317;
75.4430; 179.2040;2; 391.961; 236.334;1965.06.15 00:00:00;   0.4;1018.1;   3.0; 140.0; 198.865;  36.500;   0.683;317;
75.4700; 179.1039;2; 391.662; 236.605;1965.06.15 06:00:00;   0.4;1019.4;   4.0;  90.0; 202.961;  36.750;   0.683;317;
75.4969; 179.0035;2; 391.363; 236.876;1965.06.15 12:00:00;  -1.1;1022.1;   2.0; 110.0; 207.057;  37.000;   0.683;317;
75.5237; 178.9027;2; 391.063; 237.147;1965.06.15 18:00:00;   0.1;1023.4;   3.0; 110.0; 211.154;  37.250;   0.683;317;
75.5505; 178.8015;2; 390.764; 237.418;1965.06.16 00:00:00;   0.2;1024.1;   5.0; 110.0; 215.251;  37.500;   0.683;317;
75.5773; 178.6999;2; 390.465; 237.689;1965.06.16 06:00:00;  -1.3;1023.8;   5.0; 110.0; 219.346;  37.750;   0.683;317;
75.6040; 178.5980;2; 390.166; 237.960;1965.06.16 12:00:00;  -2.9;1024.0;   6.0; 110.0; 223.443;  38.000;   0.683;316;
75.6146; 178.5312;2; 390.045; 238.139;1965.06.16 18:00:00;  -3.5;1023.0;   6.0; 110.0; 225.631;  38.250;   0.365;302;
75.6251; 178.4643;2; 389.925; 238.318;1965.06.17 00:00:00;  -2.9;1022.2;   7.0;  90.0; 227.819;  38.500;   0.365;302;
75.6357; 178.3974;2; 389.805; 238.496;1965.06.17 06:00:00;  -2.8;1020.3;   8.0; 110.0; 230.008;  38.750;   0.365;302;
75.6462; 178.3303;2; 389.684; 238.675;1965.06.17 12:00:00;  -4.3;1021.1;   5.0; 110.0; 232.195;  39.000;   0.365;302;
75.6566; 178.2631;2; 389.564; 238.854;1965.06.17 18:00:00;  -5.1;1020.7;   6.0; 110.0; 234.383;  39.250;   0.365;302;
75.6671; 178.1958;2; 389.444; 239.033;1965.06.18 00:00:00;  -4.5;1020.7;   6.0;  90.0; 236.571;  39.500;   0.365;302;
75.6776; 178.1285;2; 389.324; 239.212;1965.06.18 06:00:00;  -3.8;1020.4;   5.0;  90.0; 238.759;  39.750;   0.365;302;
75.6880; 178.0610;2; 389.203; 239.391;1965.06.18 12:00:00;  -5.6;1020.4;   3.0;  70.0; 240.947;  40.000;   0.365;302;
75.6966; 177.9678;2; 389.100; 239.640;1965.06.18 18:00:00;  -5.9;1019.8;   3.0;  50.0; 243.683;  40.250;   0.456;291;
75.7052; 177.8744;2; 388.997; 239.889;1965.06.19 00:00:00;  -1.1;1019.0;   3.0; 360.0; 246.419;  40.500;   0.456;290;
75.7138; 177.7810;2; 388.893; 240.138;1965.06.19 06:00:00;  -0.2;1017.9;   4.0;  20.0; 249.155;  40.750;   0.456;290;
75.7223; 177.6874;2; 388.790; 240.387;1965.06.19 12:00:00;  -2.5;1019.1;   3.0;  20.0; 251.891;  41.000;   0.456;290;
75.7308; 177.5937;2; 388.687; 240.636;1965.06.19 18:00:00;  -3.1;1018.9;   4.0;  20.0; 254.627;  41.250;   0.456;290;
75.7392; 177.4999;2; 388.584; 240.884;1965.06.20 00:00:00;  -0.2;1019.0;   4.0; 360.0; 257.363;  41.500;   0.456;290;
75.7476; 177.4060;2; 388.481; 241.133;1965.06.20 06:00:00;  -0.1;1018.1;   5.0; 360.0; 260.099;  41.750;   0.456;290;
75.7560; 177.3120;2; 388.377; 241.382;1965.06.20 12:00:00;  -2.1;1019.5;   5.0; 360.0; 262.835;  42.000;   0.456;290;
75.7587; 177.2421;2; 388.339; 241.569;1965.06.20 18:00:00;  -2.9;1020.1;   4.0; 360.0; 264.770;  42.250;   0.323;279;
75.7614; 177.1722;2; 388.300; 241.756;1965.06.21 00:00:00;  -0.9;1021.2;   6.0; 360.0; 266.706;  42.500;   0.323;279;
75.7640; 177.1022;2; 388.262; 241.943;1965.06.21 06:00:00;  -0.6;1022.1;   4.0; 360.0; 268.642;  42.750;   0.323;279;
75.7667; 177.0322;2; 388.224; 242.129;1965.06.21 12:00:00;  -2.8;1022.7;   3.0; 360.0; 270.578;  43.000;   0.323;279;
75.7693; 176.9622;2; 388.185; 242.316;1965.06.21 18:00:00;  -3.4;1023.4;   2.0; 360.0; 272.514;  43.250;   0.323;279;
75.7719; 176.8922;2; 388.147; 242.503;1965.06.22 00:00:00;  -1.0;1023.5;   3.0;  50.0; 274.450;  43.500;   0.323;279;
75.7745; 176.8221;2; 388.108; 242.690;1965.06.22 06:00:00;  -1.2;1023.1;   3.0;  90.0; 276.386;  43.750;   0.323;278;
75.7770; 176.7520;2; 388.070; 242.876;1965.06.22 12:00:00;  -4.3;1024.2;   2.0;  70.0; 278.322;  44.000;   0.323;278;
75.7768; 176.7159;2; 388.067; 242.974;1965.06.22 18:00:00;  -3.7;1024.7;   2.0;  90.0; 279.310;  44.250;   0.165;269;
75.7765; 176.6797;2; 388.064; 243.071;1965.06.23 00:00:00;  -0.4;1024.9;   4.0; 140.0; 280.297;  44.500;   0.165;268;
75.7763; 176.6436;2; 388.061; 243.168;1965.06.23 06:00:00;   0.0;1023.9;   4.0; 110.0; 281.284;  44.750;   0.165;268;
75.7760; 176.6075;2; 388.058; 243.265;1965.06.23 12:00:00;  -2.6;1023.6;   3.0; 110.0; 282.272;  45.000;   0.165;268;
75.7758; 176.5714;2; 388.055; 243.363;1965.06.23 18:00:00;  -2.8;1022.8;   4.0; 110.0; 283.259;  45.250;   0.165;268;
75.7755; 176.5352;2; 388.052; 243.460;1965.06.24 00:00:00;  -0.3;1021.8;   5.0; 110.0; 284.247;  45.500;   0.165;268;
75.7753; 176.4991;2; 388.049; 243.557;1965.06.24 06:00:00;  -0.9;1020.5;   7.0; 110.0; 285.234;  45.750;   0.165;268;
75.7750; 176.4630;2; 388.045; 243.654;1965.06.24 12:00:00;  -2.8;1018.8;   7.0; 110.0; 286.221;  46.000;   0.165;268;
75.7875; 176.4270;2; 387.903; 243.742;1965.06.24 18:00:00;  -2.8;1017.7;   4.0; 110.0; 287.926;  46.250;   0.284;325;
75.8000; 176.3909;2; 387.760; 243.831;1965.06.25 00:00:00;   0.4;1017.3;   4.0;  90.0; 289.631;  46.500;   0.284;325;
75.8125; 176.3547;2; 387.617; 243.919;1965.06.25 06:00:00;   0.1;1016.5;   5.0; 110.0; 291.335;  46.750;   0.284;325;
75.8251; 176.3185;2; 387.474; 244.007;1965.06.25 12:00:00;  -0.9;1016.2;   5.0; 140.0; 293.041;  47.000;   0.284;325;
75.8375; 176.2822;2; 387.331; 244.095;1965.06.25 18:00:00;  -1.4;1015.9;   3.0;  90.0; 294.745;  47.250;   0.284;325;
75.8500; 176.2459;2; 387.188; 244.183;1965.06.26 00:00:00;   0.4;1015.0;   4.0;  90.0; 296.449;  47.500;   0.284;325;
75.8625; 176.2095;2; 387.046; 244.272;1965.06.26 06:00:00;   0.6;1015.1;   3.0;  90.0; 298.154;  47.750;   0.284;325;
75.8750; 176.1730;2; 386.903; 244.360;1965.06.26 12:00:00;  -1.6;1014.3;   4.0;  90.0; 299.859;  48.000;   0.284;324;
75.8882; 176.1196;2; 386.749; 244.493;1965.06.26 18:00:00;  -1.2;1012.8;   4.0; 140.0; 301.919;  48.250;   0.343;315;
75.9013; 176.0661;2; 386.596; 244.625;1965.06.27 00:00:00;  -0.9;1010.8;   5.0;  90.0; 303.978;  48.500;   0.343;315;
75.9145; 176.0125;2; 386.442; 244.758;1965.06.27 06:00:00;  -0.6;1009.8;   4.0;  90.0; 306.038;  48.750;   0.343;315;
75.9276; 175.9588;2; 386.289; 244.890;1965.06.27 12:00:00;   0.0;1011.5;   5.0; 110.0; 308.097;  49.000;   0.343;315;
75.9407; 175.9050;2; 386.135; 245.023;1965.06.27 18:00:00;   0.2;1012.2;   4.0; 110.0; 310.157;  49.250;   0.343;315;
75.9538; 175.8511;2; 385.982; 245.156;1965.06.28 00:00:00;   0.7;1009.6;   8.0;  50.0; 312.216;  49.500;   0.343;315;
75.9669; 175.7971;2; 385.829; 245.288;1965.06.28 06:00:00;   0.7;1007.2;   7.0;  70.0; 314.276;  49.750;   0.343;315;
75.9800; 175.7430;2; 385.675; 245.421;1965.06.28 12:00:00;  -0.4;1010.2;   8.0;  90.0; 316.336;  50.000;   0.343;315;